• In Österreich
  • Länderverzeichnis
  • Für 7 Tage
  • Wassertemperatur
  • Satellitenkarten
  • Wetterkarte
  • News
  • Widgets
  • user-avatar
    Anmelden

    Stündliche Wetter Salzburg

    Heute, 22 Oktober, Montag

    Zeit Temperatur Niederschläge Wind Luftdruck Luftfeuchtigkeit
    00:00 -2°C° 0 mm 1 m/S 629 mmHg 91%
    01:00 -2°C° 0 mm 1 m/S 629 mmHg 90%
    02:00 -2°C° 0 mm 1 m/S 629 mmHg 88%
    03:00 -2°C° 0 mm 1 m/S 629 mmHg 86%
    04:00 -2°C° 0 mm 1 m/S 628 mmHg 84%
    05:00 -2°C° 0 mm 1 m/S 628 mmHg 81%
    06:00 -2°C° 0 mm 1 m/S 629 mmHg 79%
    07:00 -2°C° 0 mm 1 m/S 629 mmHg 77%
    08:00 +1°C° 0 mm 1 m/S 629 mmHg 68%
    09:00 +4°C° 0 mm 1 m/S 630 mmHg 58%
    10:00 +6°C° 0 mm 1 m/S 631 mmHg 49%
    11:00 +7°C° 0 mm 1 m/S 631 mmHg 49%
    12:00 +7°C° 0 mm 2 m/S 631 mmHg 49%
    13:00 +8°C° 0 mm 2 m/S 631 mmHg 49%
    14:00 +7°C° 0 mm 2 m/S 631 mmHg 56%
    15:00 +6°C° 0 mm 2 m/S 630 mmHg 62%
    16:00 +5°C° 0 mm 2 m/S 630 mmHg 68%
    17:00 +3°C° 0 mm 2 m/S 630 mmHg 77%
    18:00 +2°C° 0 mm 1 m/S 630 mmHg 85%
    19:00 +1°C° 0 mm 1 m/S 630 mmHg 93%
    20:00 0°C° 0 mm 1 m/S 630 mmHg 93%
    21:00 0°C° 0 mm 1 m/S 630 mmHg 94%
    22:00 -2°C° 0 mm 2 m/S 631 mmHg 94%
    23:00 -2°C° 0 mm 2 m/S 631 mmHg 93%

    Morgen, 23 Oktober, Dienstag

    Zeit Temperatur Niederschläge Wind Luftdruck Luftfeuchtigkeit
    00:00 -2°C° 0 mm 2 m/S 631 mmHg 92%
    01:00 -1°C° 0 mm 2 m/S 631 mmHg 91%
    02:00 -2°C° 0 mm 2 m/S 631 mmHg 91%
    03:00 0°C° 0 mm 1 m/S 630 mmHg 90%
    04:00 -1°C° 0 mm 1 m/S 630 mmHg 90%
    05:00 0°C° 0 mm 1 m/S 630 mmHg 89%
    06:00 -2°C° 0 mm 2 m/S 630 mmHg 88%
    07:00 -2°C° 0 mm 2 m/S 630 mmHg 88%
    08:00 +1°C° 0 mm 2 m/S 631 mmHg 78%
    09:00 +3°C° 0 mm 2 m/S 631 mmHg 69%
    10:00 +5°C° 0 mm 2 m/S 632 mmHg 60%
    11:00 +6°C° 0 mm 2 m/S 631 mmHg 58%
    12:00 +7°C° 0 mm 3 m/S 631 mmHg 56%
    13:00 +8°C° 0 mm 3 m/S 631 mmHg 54%
    14:00 +7°C° 0 mm 3 m/S 630 mmHg 58%
    15:00 +5°C° 0 mm 3 m/S 630 mmHg 61%
    16:00 +6°C° 0 mm 2 m/S 629 mmHg 65%
    17:00 +4°C° 0.1 mm 2 m/S 629 mmHg 71%
    18:00 +3°C° 0.1 mm 2 m/S 629 mmHg 77%
    19:00 +2°C° 0.1 mm 2 m/S 629 mmHg 84%
    20:00 +1°C° 0.3 mm 3 m/S 629 mmHg 84%
    21:00 +1°C° 0.3 mm 3 m/S 629 mmHg 85%
    22:00 +1°C° 0.3 mm 3 m/S 629 mmHg 86%
    23:00 +1°C° 0.3 mm 3 m/S 628 mmHg 86%

    übermorgen, 24 Oktober, Mittwoch

    Zeit Temperatur Niederschläge Wind Luftdruck Luftfeuchtigkeit
    00:00 +1°C° 0.3 mm 3 m/S 628 mmHg 86%
    01:00 +1°C° 0.3 mm 3 m/S 628 mmHg 86%
    02:00 +1°C° 0.5 mm 3 m/S 627 mmHg 87%
    03:00 0°C° 0.5 mm 4 m/S 627 mmHg 87%
    04:00 0°C° 0.5 mm 4 m/S 627 mmHg 88%
    05:00 +1°C° 1.1 mm 4 m/S 627 mmHg 89%
    06:00 +1°C° 1.1 mm 4 m/S 626 mmHg 90%
    07:00 +1°C° 1.1 mm 4 m/S 626 mmHg 92%
    08:00 +1°C° 1.9 mm 4 m/S 626 mmHg 91%
    09:00 +3°C° 1.9 mm 4 m/S 626 mmHg 90%
    10:00 +3°C° 1.9 mm 4 m/S 626 mmHg 90%
    11:00 +3°C° 1.7 mm 4 m/S 626 mmHg 90%
    12:00 +4°C° 1.7 mm 4 m/S 626 mmHg 90%
    13:00 +4°C° 1.7 mm 4 m/S 626 mmHg 90%
    14:00 +3°C° 1.4 mm 4 m/S 626 mmHg 91%
    15:00 +3°C° 1.4 mm 4 m/S 627 mmHg 92%
    16:00 +3°C° 1.4 mm 4 m/S 627 mmHg 93%
    17:00 +3°C° 1.3 mm 4 m/S 627 mmHg 94%
    18:00 +3°C° 1.3 mm 4 m/S 627 mmHg 94%
    19:00 +3°C° 1.3 mm 3 m/S 627 mmHg 95%
    20:00 +3°C° 0.9 mm 3 m/S 628 mmHg 95%
    21:00 +3°C° 0.9 mm 3 m/S 628 mmHg 96%
    22:00 +3°C° 0.9 mm 3 m/S 628 mmHg 96%
    23:00 +3°C° 0.5 mm 3 m/S 628 mmHg 96%

    25 Oktober, Donnerstag

    Zeit Temperatur Niederschläge Wind Luftdruck Luftfeuchtigkeit
    00:00 +3°C° 0.5 mm 3 m/S 628 mmHg 96%
    01:00 +3°C° 0.5 mm 3 m/S 628 mmHg 97%
    02:00 +3°C° 0.1 mm 2 m/S 628 mmHg 97%
    03:00 +3°C° 0.1 mm 2 m/S 628 mmHg 96%
    04:00 +3°C° 0.1 mm 2 m/S 627 mmHg 96%
    05:00 +2°C° 0 mm 2 m/S 627 mmHg 96%
    06:00 +2°C° 0 mm 2 m/S 627 mmHg 96%
    07:00 +1°C° 0 mm 2 m/S 627 mmHg 96%
    08:00 +3°C° 0 mm 2 m/S 627 mmHg 90%
    09:00 +5°C° 0 mm 2 m/S 627 mmHg 83%
    10:00 +7°C° 0 mm 2 m/S 628 mmHg 77%
    11:00 +7°C° 0 mm 2 m/S 628 mmHg 72%
    12:00 +8°C° 0 mm 2 m/S 628 mmHg 67%
    13:00 +9°C° 0 mm 2 m/S 628 mmHg 61%
    14:00 +9°C° 0 mm 2 m/S 628 mmHg 66%
    15:00 +8°C° 0 mm 2 m/S 627 mmHg 71%
    16:00 +7°C° 0 mm 2 m/S 627 mmHg 76%
    17:00 +7°C° 0 mm 1 m/S 626 mmHg 81%
    18:00 +5°C° 0 mm 1 m/S 626 mmHg 87%
    19:00 +4°C° 0 mm 1 m/S 626 mmHg 92%
    20:00 +3°C° 0 mm 1 m/S 625 mmHg 90%
    21:00 +3°C° 0 mm 1 m/S 625 mmHg 89%
    22:00 +2°C° 0 mm 1 m/S 625 mmHg 87%
    23:00 +2°C° 0 mm 1 m/S 625 mmHg 83%

    26 Oktober, Freitag

    Zeit Temperatur Niederschläge Wind Luftdruck Luftfeuchtigkeit
    00:00 +2°C° 0 mm 1 m/S 624 mmHg 79%
    01:00 +1°C° 0 mm 1 m/S 624 mmHg 75%
    02:00 +1°C° 0 mm 1 m/S 623 mmHg 71%
    03:00 +1°C° 0 mm 1 m/S 623 mmHg 66%
    04:00 +1°C° 0 mm 1 m/S 623 mmHg 61%
    05:00 +1°C° 0 mm 1 m/S 622 mmHg 60%
    06:00 +1°C° 0 mm 1 m/S 622 mmHg 60%
    07:00 0°C° 0 mm 1 m/S 622 mmHg 59%
    08:00 +3°C° 0 mm 1 m/S 623 mmHg 56%
    09:00 +6°C° 0 mm 1 m/S 623 mmHg 53%
    10:00 +9°C° 0 mm 1 m/S 624 mmHg 51%
    11:00 +10°C° 0 mm 1 m/S 624 mmHg 50%
    12:00 +11°C° 0 mm 1 m/S 624 mmHg 49%
    13:00 +12°C° 0 mm 1 m/S 623 mmHg 48%
    14:00 +11°C° 0 mm 1 m/S 623 mmHg 56%
    15:00 +10°C° 0 mm 1 m/S 622 mmHg 64%
    16:00 +8°C° 0 mm 1 m/S 621 mmHg 72%
    17:00 +7°C° 0 mm 1 m/S 620 mmHg 78%
    18:00 +6°C° 0 mm 1 m/S 620 mmHg 83%
    19:00 +3°C° 0 mm 2 m/S 619 mmHg 88%
    20:00 +3°C° 0 mm 2 m/S 619 mmHg 88%
    21:00 +3°C° 0 mm 2 m/S 619 mmHg 89%
    22:00 +3°C° 0 mm 2 m/S 619 mmHg 89%
    23:00 +3°C° 0 mm 2 m/S 619 mmHg 89%

    27 Oktober, Samstag

    Zeit Temperatur Niederschläge Wind Luftdruck Luftfeuchtigkeit
    00:00 +3°C° 0 mm 2 m/S 619 mmHg 89%
    01:00 +3°C° 0 mm 2 m/S 618 mmHg 89%
    02:00 +3°C° 0.1 mm 2 m/S 618 mmHg 89%
    03:00 +3°C° 0.1 mm 2 m/S 617 mmHg 89%
    04:00 +3°C° 0.1 mm 2 m/S 617 mmHg 89%
    05:00 +3°C° 0.5 mm 2 m/S 616 mmHg 90%
    06:00 +3°C° 0.5 mm 2 m/S 616 mmHg 91%
    07:00 +3°C° 0.5 mm 2 m/S 615 mmHg 93%
    08:00 +4°C° 0.6 mm 2 m/S 615 mmHg 90%
    09:00 +5°C° 0.6 mm 2 m/S 615 mmHg 88%
    10:00 +6°C° 0.6 mm 2 m/S 615 mmHg 86%
    11:00 +5°C° 1.5 mm 2 m/S 615 mmHg 88%
    12:00 +3°C° 1.5 mm 3 m/S 615 mmHg 90%
    13:00 +3°C° 1.5 mm 3 m/S 614 mmHg 92%
    14:00 +2°C° 2.8 mm 3 m/S 614 mmHg 94%
    15:00 +2°C° 2.8 mm 2 m/S 613 mmHg 95%
    16:00 +1°C° 2.8 mm 2 m/S 613 mmHg 97%
    17:00 +1°C° 3.2 mm 2 m/S 612 mmHg 97%
    18:00 -1°C° 3.2 mm 2 m/S 612 mmHg 97%
    19:00 0°C° 3.2 mm 1 m/S 612 mmHg 97%
    20:00 -2°C° 4.3 mm 2 m/S 612 mmHg 97%
    21:00 -3°C° 4.3 mm 2 m/S 612 mmHg 97%
    22:00 -3°C° 4.3 mm 2 m/S 612 mmHg 97%
    23:00 -3°C° 1.6 mm 2 m/S 612 mmHg 97%

    28 Oktober, Sonntag

    Zeit Temperatur Niederschläge Wind Luftdruck Luftfeuchtigkeit
    00:00 -4°C° 1.6 mm 2 m/S 612 mmHg 97%
    01:00 -4°C° 1.6 mm 2 m/S 613 mmHg 97%
    02:00 -2°C° 0.3 mm 1 m/S 613 mmHg 97%
    03:00 -2°C° 0.3 mm 1 m/S 613 mmHg 97%
    04:00 -3°C° 0.3 mm 1 m/S 613 mmHg 97%
    05:00 -3°C° 0.2 mm 1 m/S 614 mmHg 97%
    06:00 -2°C° 0.2 mm 1 m/S 614 mmHg 97%
    07:00 -4°C° 0.2 mm 2 m/S 614 mmHg 97%
    08:00 -4°C° 0.2 mm 2 m/S 615 mmHg 97%
    09:00 -3°C° 0.2 mm 2 m/S 616 mmHg 96%
    10:00 -2°C° 0.2 mm 2 m/S 617 mmHg 96%
    11:00 -2°C° 0.2 mm 2 m/S 617 mmHg 95%
    12:00 -2°C° 0.2 mm 2 m/S 617 mmHg 95%
    13:00 -2°C° 0.2 mm 2 m/S 617 mmHg 94%
    14:00 -2°C° 0.2 mm 2 m/S 618 mmHg 94%
    15:00 -2°C° 0.2 mm 2 m/S 618 mmHg 95%
    16:00 -2°C° 0.2 mm 2 m/S 618 mmHg 95%
    17:00 -1°C° 0.1 mm 1 m/S 618 mmHg 95%
    18:00 -2°C° 0.1 mm 1 m/S 618 mmHg 96%
    19:00 -2°C° 0.1 mm 1 m/S 618 mmHg 97%
    20:00 -2°C° 0 mm 1 m/S 618 mmHg 97%
    21:00 -2°C° 0 mm 1 m/S 618 mmHg 96%
    22:00 -3°C° 0 mm 1 m/S 618 mmHg 96%
    23:00 -3°C° 0 mm 1 m/S 618 mmHg 96%
    Mehr zeigen